TimeMST,TemperatureF,Dew PointF,Humidity,Sea Level PressureIn,VisibilityMPH,Wind Direction,Wind SpeedMPH,Gust SpeedMPH,PrecipitationIn,Events,Conditions,WindDirDegrees,DateUTC
12:53 AM,19.0,16.0,88,29.88,10.0,Calm,Calm,-,N/A,,Clear,0,2012-12-14 07:53:00
1:53 AM,19.9,17.1,89,29.85,10.0,South,3.5,-,N/A,,Clear,180,2012-12-14 08:53:00
2:53 AM,19.9,17.1,89,29.84,10.0,SSW,4.6,-,N/A,,Clear,200,2012-12-14 09:53:00
3:53 AM,18.0,15.1,88,29.83,10.0,Calm,Calm,-,N/A,,Clear,0,2012-12-14 10:53:00
4:53 AM,16.0,12.9,88,29.84,10.0,NW,3.5,-,N/A,,Clear,310,2012-12-14 11:53:00
5:53 AM,16.0,12.9,88,29.85,10.0,North,4.6,-,N/A,,Clear,10,2012-12-14 12:53:00
6:53 AM,18.0,14.0,84,29.84,10.0,South,6.9,-,N/A,,Clear,190,2012-12-14 13:53:00
7:53 AM,18.0,14.0,84,29.84,10.0,Calm,Calm,-,N/A,,Clear,0,2012-12-14 14:53:00
8:53 AM,18.0,15.1,88,29.83,10.0,Calm,Calm,-,N/A,,Clear,0,2012-12-14 15:53:00
9:53 AM,21.9,18.0,85,29.82,10.0,South,4.6,-,N/A,,Clear,180,2012-12-14 16:53:00
10:53 AM,27.0,21.0,78,29.78,10.0,Calm,Calm,-,N/A,,Clear,0,2012-12-14 17:53:00
11:53 AM,33.1,21.9,64,29.73,10.0,North,3.5,-,N/A,,Clear,10,2012-12-14 18:53:00
12:53 PM,37.0,21.0,52,29.67,10.0,NNE,4.6,-,N/A,,Clear,20,2012-12-14 19:53:00
1:53 PM,39.0,23.0,53,29.63,10.0,North,3.5,-,N/A,,Clear,360,2012-12-14 20:53:00
2:53 PM,39.9,21.9,49,29.62,10.0,Calm,Calm,-,N/A,,Clear,0,2012-12-14 21:53:00
3:53 PM,37.0,23.0,57,29.65,10.0,Calm,Calm,-,N/A,,Clear,0,2012-12-14 22:53:00
4:53 PM,32.0,24.1,73,29.69,10.0,East,4.6,-,N/A,,Scattered Clouds,80,2012-12-14 23:53:00
5:53 PM,32.0,24.1,73,29.69,10.0,Calm,Calm,-,N/A,,Mostly Cloudy,0,2012-12-15 00:53:00
6:53 PM,32.0,24.1,73,29.69,10.0,Calm,Calm,-,N/A,,Overcast,0,2012-12-15 01:53:00
7:53 PM,30.0,24.1,79,29.71,10.0,South,4.6,-,N/A,,Overcast,180,2012-12-15 02:53:00
8:53 PM,28.9,24.1,82,29.73,10.0,Calm,Calm,-,N/A,,Overcast,0,2012-12-15 03:53:00
9:53 PM,30.0,25.0,82,29.74,10.0,Calm,Calm,-,N/A,,Overcast,0,2012-12-15 04:53:00
10:53 PM,30.0,25.0,82,29.74,10.0,Calm,Calm,-,N/A,,Overcast,0,2012-12-15 05:53:00
11:53 PM,30.0,25.0,82,29.74,10.0,South,3.5,-,N/A,,Overcast,190,2012-12-15 06:53:00